Regional Weather Roundup
Issued by NWS

Home | Current Version | Previous Version | Graphics & Text | Print | Product List | Glossary On
Versions: 1 2 3 4 5 6 7 8 9 10 11 12 13 14 15 16 17 18 19 20 21 22 23 24 25 26 27 28 29 30 31 32 33 34 35 36 37 38 39 40 41 42 43 44 45 46 47 48 49 50
000
ASUS43 KBIS 300510
RWRND

NORTH DAKOTA REGIONAL WEATHER ROUNDUP
NATIONAL WEATHER SERVICE BISMARCK ND
1200 AM CDT TUE AUG 30 2016

NOTE: "FAIR" INDICATES FEW OR NO CLOUDS BELOW 12,000 FEET WITH NO
SIGNIFICANT WEATHER AND/OR OBSTRUCTIONS TO VISIBILITY.


NDZ001>003-009>011-017-300600-
NORTHWEST NORTH DAKOTA

CITY           SKY/WX    TMP DP  RH WIND       PRES   REMARKS
WILLISTON      CLEAR     60  40  47 CALM      30.22S
MINOT          CLEAR     61  47  59 SE3       30.24S
MINOT AFB      CLEAR     52  44  73 S5        30.23S
$$

NDZ018>021-031>035-040>046-300600-
SOUTHWEST NORTH DAKOTA

CITY           SKY/WX    TMP DP  RH WIND       PRES   REMARKS
BISMARCK       CLEAR     54  49  83 SE5       30.26R
DICKINSON      CLEAR     57  44  62 E7        30.25S
GARRISON         N/A     54  46  74 CALM      30.25S
HETTINGER ARPT CLEAR     59  49  69 E7        30.27F
$$

NDZ004>008-012>016-024-026-027-054-300600-
NORTHEAST NORTH DAKOTA

CITY           SKY/WX    TMP DP  RH WIND       PRES   REMARKS
GRAND FORKS    CLEAR     55  51  86 NW7       30.19R
GRND FRKS AFB  CLEAR     58  51  76 N7        30.20S
DEVILS LAKE    CLEAR     57  51  80 NW3       30.24F
$$

NDZ022-023-025-028>030-036>039-047>053-300600-
SOUTHEAST NORTH DAKOTA

CITY           SKY/WX    TMP DP  RH WIND       PRES   REMARKS
FARGO          PTCLDY    60  53  77 N6        30.19S
JAMESTOWN      CLEAR     55  52  89 NW5       30.23S
$$





USA.gov is the U.S. government's official web portal to all federal, state and local government web resources and services.